Time,TemperatureF,DewpointF,PressureIn,WindDirection,WindDirectionDegrees,WindSpeedMPH,WindSpeedGustMPH,Humidity,HourlyPrecipIn,Conditions,Clouds,dailyrainin,SoftwareType,DateUTC
2013-09-07 00:05:00,69.6,61.7,29.71,SE,127,0.0,0.0,76,0.00,,,0.00,Wunderground v.1.15,2013-09-07 07:05:00,
2013-09-07 00:20:00,69.4,61.9,29.71,SE,127,0.0,0.0,77,0.00,,,0.00,Wunderground v.1.15,2013-09-07 07:20:00,
2013-09-07 00:30:00,69.4,61.9,29.71,SE,127,0.0,0.0,77,0.00,,,0.00,Wunderground v.1.15,2013-09-07 07:30:00,
2013-09-07 00:35:00,69.4,61.9,29.71,SE,127,0.0,0.0,77,0.00,,,0.00,Wunderground v.1.15,2013-09-07 07:35:00,
2013-09-07 00:45:00,69.3,61.8,29.71,SE,127,0.0,0.0,77,0.00,,,0.00,Wunderground v.1.15,2013-09-07 07:45:00,
2013-09-07 00:50:00,69.1,61.6,29.70,SE,127,0.0,0.0,77,0.00,,,0.00,Wunderground v.1.15,2013-09-07 07:50:00,
2013-09-07 01:00:00,69.1,61.9,29.70,SE,127,0.0,0.0,78,0.00,,,0.00,Wunderground v.1.15,2013-09-07 08:00:00,
2013-09-07 01:10:00,69.1,61.9,29.71,SE,127,0.0,0.0,78,0.00,,,0.00,Wunderground v.1.15,2013-09-07 08:10:00,
2013-09-07 01:20:00,69.1,61.9,29.71,SE,127,0.0,0.0,78,0.00,,,0.00,Wunderground v.1.15,2013-09-07 08:20:00,
2013-09-07 01:25:00,68.9,61.8,29.71,SE,127,0.0,0.0,78,0.00,,,0.00,Wunderground v.1.15,2013-09-07 08:25:00,
2013-09-07 01:30:00,68.9,61.8,29.71,SE,127,0.0,0.0,78,0.00,,,0.00,Wunderground v.1.15,2013-09-07 08:30:00,
2013-09-07 01:40:00,68.9,61.8,29.71,SE,127,0.0,0.0,78,0.00,,,0.00,Wunderground v.1.15,2013-09-07 08:40:00,
2013-09-07 01:50:00,68.9,61.8,29.70,SE,127,0.0,0.0,78,0.00,,,0.00,Wunderground v.1.15,2013-09-07 08:50:00,
2013-09-07 01:55:00,68.9,61.8,29.70,SE,127,0.0,0.0,78,0.00,,,0.00,Wunderground v.1.15,2013-09-07 08:55:00,
2013-09-07 02:05:00,69.1,61.9,29.70,SE,127,0.0,0.0,78,0.00,,,0.00,Wunderground v.1.15,2013-09-07 09:05:00,
2013-09-07 02:10:00,69.1,61.9,29.70,SE,127,0.0,0.0,78,0.00,,,0.00,Wunderground v.1.15,2013-09-07 09:10:00,
2013-09-07 02:20:00,69.4,62.2,29.70,SE,127,0.0,0.0,78,0.00,,,0.00,Wunderground v.1.15,2013-09-07 09:20:00,
2013-09-07 02:30:00,69.6,62.4,29.70,SE,127,0.0,1.0,78,0.00,,,0.00,Wunderground v.1.15,2013-09-07 09:30:00,
2013-09-07 02:40:00,69.6,62.4,29.70,SE,127,1.0,2.0,78,0.00,,,0.00,Wunderground v.1.15,2013-09-07 09:40:00,
2013-09-07 02:45:00,69.4,62.2,29.70,East,97,1.0,2.0,78,0.00,,,0.00,Wunderground v.1.15,2013-09-07 09:45:00,
2013-09-07 02:55:00,69.3,62.1,29.70,East,97,1.0,1.0,78,0.00,,,0.00,Wunderground v.1.15,2013-09-07 09:55:00,
2013-09-07 02:59:00,69.1,61.9,29.70,East,97,0.0,0.0,78,0.00,,,0.00,Wunderground v.1.15,2013-09-07 09:59:00,
2013-09-07 03:10:00,68.9,61.8,29.70,East,97,0.0,0.0,78,0.00,,,0.00,Wunderground v.1.15,2013-09-07 10:10:00,
2013-09-07 03:20:00,68.8,62.0,29.70,East,97,0.0,0.0,79,0.00,,,0.00,Wunderground v.1.15,2013-09-07 10:20:00,
2013-09-07 03:40:00,68.4,61.6,29.70,East,97,0.0,0.0,79,0.00,,,0.00,Wunderground v.1.15,2013-09-07 10:40:00,
2013-09-07 03:50:00,68.4,62.0,29.70,East,97,0.0,0.0,80,0.00,,,0.00,Wunderground v.1.15,2013-09-07 10:50:00,
2013-09-07 04:05:00,68.1,62.0,29.69,East,97,0.0,0.0,81,0.00,,,0.00,Wunderground v.1.15,2013-09-07 11:05:00,
2013-09-07 04:10:00,67.9,61.9,29.69,East,97,0.0,0.0,81,0.00,,,0.00,Wunderground v.1.15,2013-09-07 11:10:00,
2013-09-07 04:20:00,67.9,61.9,29.70,East,97,1.0,1.0,81,0.00,,,0.00,Wunderground v.1.15,2013-09-07 11:20:00,
2013-09-07 04:24:00,67.8,61.8,29.70,East,97,1.0,1.0,81,0.00,,,0.00,Wunderground v.1.15,2013-09-07 11:24:00,
2013-09-07 04:30:00,67.8,62.1,29.69,East,97,1.0,1.0,82,0.00,,,0.00,Wunderground v.1.15,2013-09-07 11:30:00,
2013-09-07 04:35:00,67.6,61.9,29.69,East,97,0.0,1.0,82,0.00,,,0.00,Wunderground v.1.15,2013-09-07 11:35:00,
2013-09-07 04:39:00,67.6,61.9,29.69,East,97,0.0,1.0,82,0.00,,,0.00,Wunderground v.1.15,2013-09-07 11:39:00,
2013-09-07 04:45:00,67.6,61.9,29.69,East,97,0.0,1.0,82,0.00,,,0.00,Wunderground v.1.15,2013-09-07 11:45:00,
2013-09-07 04:50:00,67.4,61.7,29.69,East,97,0.0,1.0,82,0.00,,,0.00,Wunderground v.1.15,2013-09-07 11:50:00,
2013-09-07 04:55:00,67.3,61.6,29.69,East,97,0.0,1.0,82,0.00,,,0.00,Wunderground v.1.15,2013-09-07 11:55:00,
2013-09-07 05:00:00,67.3,61.6,29.69,East,97,0.0,0.0,82,0.00,,,0.00,Wunderground v.1.15,2013-09-07 12:00:00,
2013-09-07 05:05:00,67.3,61.6,29.69,East,97,0.0,0.0,82,0.00,,,0.00,Wunderground v.1.15,2013-09-07 12:05:00,
2013-09-07 05:15:00,67.1,61.8,29.70,East,97,0.0,0.0,83,0.00,,,0.00,Wunderground v.1.15,2013-09-07 12:15:00,
2013-09-07 05:20:00,67.1,61.8,29.70,East,97,0.0,0.0,83,0.00,,,0.00,Wunderground v.1.15,2013-09-07 12:20:00,
2013-09-07 05:30:00,66.9,61.6,29.70,East,97,0.0,0.0,83,0.00,,,0.00,Wunderground v.1.15,2013-09-07 12:30:00,
2013-09-07 05:35:00,66.9,61.6,29.70,East,97,0.0,0.0,83,0.00,,,0.00,Wunderground v.1.15,2013-09-07 12:35:00,
2013-09-07 05:45:00,66.8,61.5,29.70,East,97,0.0,1.0,83,0.00,,,0.00,Wunderground v.1.15,2013-09-07 12:45:00,
2013-09-07 05:50:00,66.8,61.5,29.70,East,97,0.0,1.0,83,0.00,,,0.00,Wunderground v.1.15,2013-09-07 12:50:00,
2013-09-07 05:55:00,66.8,61.8,29.70,East,97,0.0,0.0,84,0.00,,,0.00,Wunderground v.1.15,2013-09-07 12:55:00,
2013-09-07 06:00:00,66.8,61.8,29.70,East,97,0.0,0.0,84,0.00,,,0.00,Wunderground v.1.15,2013-09-07 13:00:00,
2013-09-07 06:10:00,66.6,61.6,29.70,East,97,0.0,0.0,84,0.00,,,0.00,Wunderground v.1.15,2013-09-07 13:10:00,
2013-09-07 06:15:00,66.4,61.4,29.70,East,97,0.0,0.0,84,0.00,,,0.00,Wunderground v.1.15,2013-09-07 13:15:00,
2013-09-07 06:25:00,66.4,61.4,29.70,East,97,0.0,1.0,84,0.00,,,0.00,Wunderground v.1.15,2013-09-07 13:25:00,
2013-09-07 06:35:00,66.4,61.4,29.72,East,97,0.0,0.0,84,0.00,,,0.00,Wunderground v.1.15,2013-09-07 13:35:00,
2013-09-07 06:45:00,66.3,61.7,29.72,East,97,0.0,0.0,85,0.00,,,0.00,Wunderground v.1.15,2013-09-07 13:45:00,
2013-09-07 06:55:00,66.6,61.9,29.72,East,97,0.0,0.0,85,0.00,,,0.00,Wunderground v.1.15,2013-09-07 13:55:00,
2013-09-07 07:00:00,66.8,62.1,29.72,East,97,0.0,0.0,85,0.00,,,0.00,Wunderground v.1.15,2013-09-07 14:00:00,
2013-09-07 07:05:00,67.1,62.4,29.72,East,97,0.0,0.0,85,0.00,,,0.00,Wunderground v.1.15,2013-09-07 14:05:00,
2013-09-07 07:10:00,67.6,62.9,29.72,East,97,0.0,0.0,85,0.00,,,0.00,Wunderground v.1.15,2013-09-07 14:10:00,
2013-09-07 07:15:00,67.9,62.9,29.72,East,97,0.0,0.0,84,0.00,,,0.00,Wunderground v.1.15,2013-09-07 14:15:00,
2013-09-07 07:25:00,68.8,63.4,29.72,East,97,0.0,0.0,83,0.00,,,0.00,Wunderground v.1.15,2013-09-07 14:25:00,
2013-09-07 07:35:00,68.9,63.2,29.72,East,97,0.0,0.0,82,0.00,,,0.00,Wunderground v.1.15,2013-09-07 14:35:00,
2013-09-07 07:45:00,70.3,63.1,29.72,East,97,0.0,0.0,78,0.00,,,0.00,Wunderground v.1.15,2013-09-07 14:45:00,
2013-09-07 07:55:00,71.7,64.1,29.72,East,97,0.0,0.0,77,0.00,,,0.00,Wunderground v.1.15,2013-09-07 14:55:00,
2013-09-07 08:05:00,72.7,63.9,29.72,East,97,0.0,0.0,74,0.00,,,0.00,Wunderground v.1.15,2013-09-07 15:05:00,
2013-09-07 08:10:00,73.4,63.4,29.72,East,97,0.0,0.0,71,0.00,,,0.00,Wunderground v.1.15,2013-09-07 15:10:00,
2013-09-07 08:20:00,74.6,63.8,29.72,East,97,0.0,1.0,69,0.00,,,0.00,Wunderground v.1.15,2013-09-07 15:20:00,
2013-09-07 08:35:00,75.5,64.2,29.73,East,97,1.0,1.0,68,0.00,,,0.00,Wunderground v.1.15,2013-09-07 15:35:00,
2013-09-07 08:45:00,76.2,63.1,29.73,East,97,1.0,1.0,64,0.00,,,0.00,Wunderground v.1.15,2013-09-07 15:45:00,
2013-09-07 08:50:00,76.6,63.5,29.73,East,97,1.0,1.0,64,0.00,,,0.00,Wunderground v.1.15,2013-09-07 15:50:00,
2013-09-07 09:00:00,77.3,62.8,29.73,SW,215,1.0,1.0,61,0.00,,,0.00,Wunderground v.1.15,2013-09-07 16:00:00,
2013-09-07 09:05:00,77.5,62.5,29.73,SW,220,2.0,3.0,60,0.00,,,0.00,Wunderground v.1.15,2013-09-07 16:05:00,
2013-09-07 09:15:00,78.6,62.6,29.73,SW,220,2.0,2.0,58,0.00,,,0.00,Wunderground v.1.15,2013-09-07 16:15:00,
2013-09-07 09:20:00,79.2,63.1,29.73,WSW,239,2.0,2.0,58,0.00,,,0.00,Wunderground v.1.15,2013-09-07 16:20:00,
2013-09-07 09:25:00,80.3,62.7,29.73,NNW,337,2.0,3.0,55,0.00,,,0.00,Wunderground v.1.15,2013-09-07 16:25:00,
2013-09-07 09:30:00,81.1,62.3,29.73,NNW,337,2.0,3.0,53,0.00,,,0.00,Wunderground v.1.15,2013-09-07 16:30:00,
2013-09-07 09:40:00,82.5,62.0,29.73,NNW,337,1.0,2.0,50,0.00,,,0.00,Wunderground v.1.15,2013-09-07 16:40:00,
2013-09-07 09:45:00,83.2,62.1,29.73,NNW,337,2.0,2.0,49,0.00,,,0.00,Wunderground v.1.15,2013-09-07 16:45:00,
2013-09-07 09:55:00,84.2,62.4,29.73,NNW,333,1.0,1.0,48,0.00,,,0.00,Wunderground v.1.15,2013-09-07 16:55:00,
2013-09-07 10:00:00,84.6,62.1,29.73,NNW,333,2.0,2.0,47,0.00,,,0.00,Wunderground v.1.15,2013-09-07 17:00:00,
2013-09-07 10:05:00,85.0,61.9,29.73,NNW,333,1.0,2.0,46,0.00,,,0.00,Wunderground v.1.15,2013-09-07 17:05:00,
2013-09-07 10:10:00,85.2,62.1,29.73,West,264,1.0,3.0,46,0.00,,,0.00,Wunderground v.1.15,2013-09-07 17:10:00,
2013-09-07 10:20:00,85.5,64.7,29.73,SSE,155,2.0,2.0,50,0.00,,,0.00,Wunderground v.1.15,2013-09-07 17:20:00,
2013-09-07 10:35:00,86.3,64.9,29.73,South,185,3.0,3.0,49,0.00,,,0.00,Wunderground v.1.15,2013-09-07 17:35:00,
2013-09-07 10:50:00,86.1,64.1,29.73,SSE,165,4.0,4.0,48,0.00,,,0.00,Wunderground v.1.15,2013-09-07 17:50:00,
2013-09-07 11:00:00,85.7,63.1,29.73,SSW,193,3.0,3.0,47,0.00,,,0.00,Wunderground v.1.15,2013-09-07 18:00:00,
2013-09-07 11:05:00,85.5,63.6,29.73,SE,143,3.0,3.0,48,0.00,,,0.00,Wunderground v.1.15,2013-09-07 18:05:00,
2013-09-07 11:10:00,85.9,63.3,29.73,South,176,3.0,5.0,47,0.00,,,0.00,Wunderground v.1.15,2013-09-07 18:10:00,
2013-09-07 11:15:00,85.7,63.8,29.73,South,188,3.0,5.0,48,0.00,,,0.00,Wunderground v.1.15,2013-09-07 18:15:00,
2013-09-07 11:25:00,86.3,63.7,29.73,SSE,160,3.0,5.0,47,0.00,,,0.00,Wunderground v.1.15,2013-09-07 18:25:00,
2013-09-07 11:30:00,86.7,62.8,29.73,SSW,212,3.0,5.0,45,0.00,,,0.00,Wunderground v.1.15,2013-09-07 18:30:00,
2013-09-07 11:40:00,87.5,63.5,29.73,SSE,160,4.0,4.0,45,0.00,,,0.00,Wunderground v.1.15,2013-09-07 18:40:00,
2013-09-07 11:45:00,88.0,63.4,29.73,SSE,155,4.0,4.0,44,0.00,,,0.00,Wunderground v.1.15,2013-09-07 18:45:00,
2013-09-07 11:55:00,88.0,63.4,29.73,South,182,3.0,3.0,44,0.00,,,0.00,Wunderground v.1.15,2013-09-07 18:55:00,
2013-09-07 12:10:00,88.6,61.9,29.72,SSE,157,4.0,4.0,41,0.00,,,0.00,Wunderground v.1.15,2013-09-07 19:10:00,
2013-09-07 12:15:00,89.0,62.2,29.72,SSW,205,4.0,4.0,41,0.00,,,0.00,Wunderground v.1.15,2013-09-07 19:15:00,
2013-09-07 12:25:00,90.1,62.5,29.72,SSW,205,4.0,4.0,40,0.00,,,0.00,Wunderground v.1.15,2013-09-07 19:25:00,
2013-09-07 12:30:00,90.3,62.0,29.72,SSW,192,4.0,4.0,39,0.00,,,0.00,Wunderground v.1.15,2013-09-07 19:30:00,
2013-09-07 12:40:00,90.6,61.5,29.71,SSE,158,5.0,5.0,38,0.00,,,0.00,Wunderground v.1.15,2013-09-07 19:40:00,
2013-09-07 12:45:00,90.1,59.5,29.71,SW,217,4.0,9.0,36,0.00,,,0.00,Wunderground v.1.15,2013-09-07 19:45:00,
2013-09-07 12:55:00,89.0,58.6,29.71,SSE,157,5.0,6.0,36,0.00,,,0.00,Wunderground v.1.15,2013-09-07 19:55:00,
2013-09-07 13:10:00,88.8,58.4,29.70,SSE,151,5.0,5.0,36,0.00,,,0.00,Wunderground v.1.15,2013-09-07 20:10:00,
2013-09-07 13:15:00,89.0,55.3,29.70,SW,219,5.0,8.0,32,0.00,,,0.00,Wunderground v.1.15,2013-09-07 20:15:00,
2013-09-07 13:25:00,90.6,55.8,29.70,SSE,162,5.0,5.0,31,0.00,,,0.00,Wunderground v.1.15,2013-09-07 20:25:00,
2013-09-07 13:30:00,91.2,54.5,29.70,SSW,192,4.0,6.0,29,0.00,,,0.00,Wunderground v.1.15,2013-09-07 20:30:00,
2013-09-07 13:40:00,90.6,54.9,29.70,SW,216,5.0,5.0,30,0.00,,,0.00,Wunderground v.1.15,2013-09-07 20:40:00,
2013-09-07 13:50:00,91.4,54.7,29.69,South,188,4.0,4.0,29,0.00,,,0.00,Wunderground v.1.15,2013-09-07 20:50:00,
2013-09-07 14:00:00,91.4,53.7,29.69,SSE,162,5.0,6.0,28,0.00,,,0.00,Wunderground v.1.15,2013-09-07 21:00:00,
2013-09-07 14:10:00,92.5,54.7,29.68,SSW,195,4.0,6.0,28,0.00,,,0.00,Wunderground v.1.15,2013-09-07 21:10:00,
2013-09-07 14:15:00,92.1,55.3,29.68,SSW,196,4.0,6.0,29,0.00,,,0.00,Wunderground v.1.15,2013-09-07 21:15:00,
2013-09-07 14:25:00,93.4,57.3,29.67,WSW,258,3.0,4.0,30,0.00,,,0.00,Wunderground v.1.15,2013-09-07 21:25:00,
2013-09-07 14:40:00,93.0,58.8,29.67,NW,311,6.0,10.0,32,0.00,,,0.00,Wunderground v.1.15,2013-09-07 21:40:00,
2013-09-07 14:45:00,92.1,58.0,29.67,West,277,8.0,10.0,32,0.00,,,0.00,Wunderground v.1.15,2013-09-07 21:45:00,
2013-09-07 14:55:00,91.4,57.4,29.67,NW,308,6.0,7.0,32,0.00,,,0.00,Wunderground v.1.15,2013-09-07 21:55:00,
2013-09-07 15:00:00,91.0,58.7,29.67,North,352,6.0,6.0,34,0.00,,,0.00,Wunderground v.1.15,2013-09-07 22:00:00,
2013-09-07 15:10:00,90.8,59.4,29.67,NW,311,7.0,10.0,35,0.00,,,0.00,Wunderground v.1.15,2013-09-07 22:10:00,
2013-09-07 15:15:00,90.3,58.9,29.67,NW,326,7.0,11.0,35,0.00,,,0.00,Wunderground v.1.15,2013-09-07 22:15:00,
2013-09-07 15:25:00,89.7,58.4,29.67,NNW,332,6.0,7.0,35,0.00,,,0.00,Wunderground v.1.15,2013-09-07 22:25:00,
2013-09-07 15:30:00,89.7,57.6,29.67,NW,313,7.0,9.0,34,0.00,,,0.00,Wunderground v.1.15,2013-09-07 22:30:00,
2013-09-07 15:40:00,89.5,57.4,29.67,NW,315,7.0,7.0,34,0.00,,,0.00,Wunderground v.1.15,2013-09-07 22:40:00,
2013-09-07 15:55:00,89.2,56.3,29.67,NW,326,6.0,6.0,33,0.00,,,0.00,Wunderground v.1.15,2013-09-07 22:55:00,
2013-09-07 16:00:00,89.2,56.3,29.67,WNW,299,6.0,6.0,33,0.00,,,0.00,Wunderground v.1.15,2013-09-07 23:00:00,
2013-09-07 16:10:00,88.2,57.1,29.66,WNW,294,6.0,6.0,35,0.00,,,0.00,Wunderground v.1.15,2013-09-07 23:10:00,
2013-09-07 16:15:00,87.8,57.5,29.66,North,349,7.0,7.0,36,0.00,,,0.00,Wunderground v.1.15,2013-09-07 23:15:00,
2013-09-07 16:25:00,87.5,55.7,29.66,West,277,7.0,9.0,34,0.00,,,0.00,Wunderground v.1.15,2013-09-07 23:25:00,
2013-09-07 16:30:00,86.7,55.8,29.66,WNW,302,7.0,9.0,35,0.00,,,0.00,Wunderground v.1.15,2013-09-07 23:30:00,
2013-09-07 16:40:00,86.7,56.6,29.66,WNW,282,7.0,8.0,36,0.00,,,0.00,Wunderground v.1.15,2013-09-07 23:40:00,
2013-09-07 16:45:00,86.5,57.9,29.66,WNW,287,6.0,8.0,38,0.00,,,0.00,Wunderground v.1.15,2013-09-07 23:45:00,
2013-09-07 16:55:00,85.9,58.1,29.66,NW,309,6.0,6.0,39,0.00,,,0.00,Wunderground v.1.15,2013-09-07 23:55:00,
2013-09-07 17:00:00,85.7,57.2,29.66,North,352,6.0,6.0,38,0.00,,,0.00,Wunderground v.1.15,2013-09-08 00:00:00,
2013-09-07 17:10:00,85.0,56.5,29.66,NNW,328,5.0,5.0,38,0.00,,,0.00,Wunderground v.1.15,2013-09-08 00:10:00,
2013-09-07 17:20:00,84.8,56.4,29.67,NW,304,5.0,6.0,38,0.00,,,0.00,Wunderground v.1.15,2013-09-08 00:20:00,
2013-09-07 17:30:00,84.2,56.6,29.67,NNW,328,4.0,7.0,39,0.00,,,0.00,Wunderground v.1.15,2013-09-08 00:30:00,
2013-09-07 17:35:00,84.0,56.4,29.67,NNW,335,5.0,7.0,39,0.00,,,0.00,Wunderground v.1.15,2013-09-08 00:35:00,
2013-09-07 17:45:00,83.8,55.5,29.68,NNW,340,4.0,4.0,38,0.00,,,0.00,Wunderground v.1.15,2013-09-08 00:45:00,
2013-09-07 17:50:00,83.8,56.2,29.68,WNW,299,3.0,7.0,39,0.00,,,0.00,Wunderground v.1.15,2013-09-08 00:50:00,
2013-09-07 18:00:00,83.0,54.8,29.68,WNW,288,5.0,6.0,38,0.00,,,0.00,Wunderground v.1.15,2013-09-08 01:00:00,
2013-09-07 18:05:00,82.8,55.3,29.68,NW,316,4.0,7.0,39,0.00,,,0.00,Wunderground v.1.15,2013-09-08 01:05:00,
2013-09-07 18:15:00,82.5,53.6,29.68,NW,309,5.0,5.0,37,0.00,,,0.00,Wunderground v.1.15,2013-09-08 01:15:00,
2013-09-07 18:20:00,82.3,54.2,29.68,WNW,291,4.0,6.0,38,0.00,,,0.00,Wunderground v.1.15,2013-09-08 01:20:00,
2013-09-07 18:30:00,81.5,53.4,29.68,WNW,285,5.0,9.0,38,0.00,,,0.00,Wunderground v.1.15,2013-09-08 01:30:00,
2013-09-07 18:35:00,81.1,53.8,29.68,NW,325,5.0,9.0,39,0.00,,,0.00,Wunderground v.1.15,2013-09-08 01:35:00,
2013-09-07 18:45:00,80.7,54.1,29.68,NW,320,4.0,4.0,40,0.00,,,0.00,Wunderground v.1.15,2013-09-08 01:45:00,
2013-09-07 18:50:00,80.3,54.5,29.68,NNW,337,3.0,4.0,41,0.00,,,0.00,Wunderground v.1.15,2013-09-08 01:50:00,
2013-09-07 19:00:00,79.4,54.3,29.68,NW,326,5.0,6.0,42,0.00,,,0.00,Wunderground v.1.15,2013-09-08 02:00:00,
2013-09-07 19:05:00,79.0,54.6,29.69,NW,319,5.0,6.0,43,0.00,,,0.00,Wunderground v.1.15,2013-09-08 02:05:00,
2013-09-07 19:15:00,78.3,55.2,29.69,WNW,299,3.0,3.0,45,0.00,,,0.00,Wunderground v.1.15,2013-09-08 02:15:00,
2013-09-07 19:20:00,78.1,55.0,29.69,WNW,299,2.0,3.0,45,0.00,,,0.00,Wunderground v.1.15,2013-09-08 02:20:00,
2013-09-07 19:30:00,77.7,56.4,29.69,NW,326,2.0,2.0,48,0.00,,,0.00,Wunderground v.1.15,2013-09-08 02:30:00,
2013-09-07 19:35:00,77.7,57.0,29.69,NW,326,2.0,2.0,49,0.00,,,0.00,Wunderground v.1.15,2013-09-08 02:35:00,
2013-09-07 19:45:00,77.3,57.2,29.69,NW,326,1.0,1.0,50,0.00,,,0.00,Wunderground v.1.15,2013-09-08 02:45:00,
2013-09-07 19:55:00,77.0,56.9,29.70,NW,326,0.0,0.0,50,0.00,,,0.00,Wunderground v.1.15,2013-09-08 02:55:00,
2013-09-07 20:00:00,76.4,60.0,29.70,SE,140,2.0,2.0,57,0.00,,,0.00,Wunderground v.1.15,2013-09-08 03:00:00,
2013-09-07 20:10:00,74.3,61.3,29.70,SE,140,2.0,2.0,64,0.00,,,0.00,Wunderground v.1.15,2013-09-08 03:10:00,
2013-09-07 20:20:00,73.4,61.3,29.70,SE,140,1.0,1.0,66,0.00,,,0.00,Wunderground v.1.15,2013-09-08 03:20:00,
2013-09-07 20:25:00,73.1,61.5,29.70,SE,140,1.0,1.0,67,0.00,,,0.00,Wunderground v.1.15,2013-09-08 03:25:00,
2013-09-07 20:35:00,72.4,61.7,29.71,SE,140,1.0,1.0,69,0.00,,,0.00,Wunderground v.1.15,2013-09-08 03:35:00,
2013-09-07 20:40:00,72.2,61.5,29.71,SE,140,1.0,2.0,69,0.00,,,0.00,Wunderground v.1.15,2013-09-08 03:40:00,
2013-09-07 20:50:00,71.8,61.5,29.71,SE,140,0.0,0.0,70,0.00,,,0.00,Wunderground v.1.15,2013-09-08 03:50:00,
2013-09-07 21:00:00,71.7,61.8,29.71,SE,140,1.0,1.0,71,0.00,,,0.00,Wunderground v.1.15,2013-09-08 04:00:00,
2013-09-07 21:05:00,71.3,61.4,29.71,SE,140,1.0,1.0,71,0.00,,,0.00,Wunderground v.1.15,2013-09-08 04:05:00,
2013-09-07 21:15:00,70.8,62.1,29.71,SE,140,0.0,1.0,74,0.00,,,0.00,Wunderground v.1.15,2013-09-08 04:15:00,
2013-09-07 21:25:00,70.3,62.0,29.72,SE,140,0.0,0.0,75,0.00,,,0.00,Wunderground v.1.15,2013-09-08 04:25:00,
2013-09-07 21:30:00,70.3,62.0,29.72,SE,140,0.0,0.0,75,0.00,,,0.00,Wunderground v.1.15,2013-09-08 04:30:00,
2013-09-07 21:40:00,69.8,61.9,29.72,SE,140,0.0,1.0,76,0.00,,,0.00,Wunderground v.1.15,2013-09-08 04:40:00,
2013-09-07 21:44:00,69.8,62.3,29.72,SE,140,0.0,1.0,77,0.00,,,0.00,Wunderground v.1.15,2013-09-08 04:44:00,
2013-09-07 21:50:00,69.4,61.9,29.72,SE,140,0.0,0.0,77,0.00,,,0.00,Wunderground v.1.15,2013-09-08 04:50:00,
2013-09-07 21:55:00,69.4,62.2,29.72,SE,140,1.0,2.0,78,0.00,,,0.00,Wunderground v.1.15,2013-09-08 04:55:00,
2013-09-07 22:05:00,69.1,61.9,29.73,SE,140,1.0,1.0,78,0.00,,,0.00,Wunderground v.1.15,2013-09-08 05:05:00,
2013-09-07 22:20:00,68.8,61.7,29.73,SE,140,0.0,0.0,78,0.00,,,0.00,Wunderground v.1.15,2013-09-08 05:20:00,
2013-09-07 22:25:00,68.6,61.8,29.73,SE,140,0.0,0.0,79,0.00,,,0.00,Wunderground v.1.15,2013-09-08 05:25:00,
2013-09-07 22:35:00,68.6,61.8,29.73,SE,140,0.0,1.0,79,0.00,,,0.00,Wunderground v.1.15,2013-09-08 05:35:00,
2013-09-07 22:39:00,68.4,61.6,29.73,SE,140,1.0,1.0,79,0.00,,,0.00,Wunderground v.1.15,2013-09-08 05:39:00,
2013-09-07 22:50:00,68.3,61.9,29.72,SE,140,0.0,1.0,80,0.00,,,0.00,Wunderground v.1.15,2013-09-08 05:50:00,
2013-09-07 23:00:00,67.9,61.5,29.72,SE,140,1.0,1.0,80,0.00,,,0.00,Wunderground v.1.15,2013-09-08 06:00:00,
2013-09-07 23:15:00,67.4,61.4,29.72,SE,140,2.0,2.0,81,0.00,,,0.00,Wunderground v.1.15,2013-09-08 06:15:00,
2013-09-07 23:20:00,67.3,61.3,29.72,SE,140,1.0,2.0,81,0.00,,,0.00,Wunderground v.1.15,2013-09-08 06:20:00,
2013-09-07 23:30:00,67.1,61.1,29.72,SE,140,0.0,1.0,81,0.00,,,0.00,Wunderground v.1.15,2013-09-08 06:30:00,
2013-09-07 23:45:00,66.8,61.1,29.72,SE,140,1.0,1.0,82,0.00,,,0.00,Wunderground v.1.15,2013-09-08 06:45:00,
2013-09-07 23:55:00,66.6,60.9,29.72,SE,140,1.0,1.0,82,0.00,,,0.00,Wunderground v.1.15,2013-09-08 06:55:00,